Location: Pompeys Pillar
(45.9913°N, 107.9528°W)
Time: 17:13:07
(UTC+00:00)

N. Korean satellite - Pass Details

Date: 25 January 2022
Orbit: 437 x 477 km, 97.3° (Epoch: 27 May)

Event Time Altitude Azimuth Distance (km) Brightness Sun altitude
Rises 12:28:12 0° 12° (NNE) 2,611 10.4 -23.1°
Reaches altitude 10° 12:30:18 10° 14° (NNE) 1,724 9.4 -22.7°
Maximum altitude 12:34:02 84° 103° (ESE) 513 6.6 -22.1°
Enters shadow 12:35:24 37° 188° (S) 793 7.5 -21.8°
Exits shadow 12:39:24 - 192° (SSW) 2,415 10.0 -21.1°
Sets 12:39:47 0° 192° (SSW) 2,579 10.2 -21.1°
